Regional Weather Roundup
Issued by NWS

Home | Current Version | Previous Version | Graphics & Text | Print | Product List | Glossary On
Versions: 1 2 3 4 5 6 7 8 9 10 11 12 13 14 15 16 17 18 19 20 21 22 23 24 25 26 27 28 29 30 31 32 33 34 35 36 37 38 39 40 41 42 43 44 45 46 47 48 49 50
000
ASUS44 KMEG 060100
RWRTN
TENNESSEE HOURLY STATE WEATHER ROUNDUP
NATIONAL WEATHER SERVICE MEMPHIS TN
700 PM CST THU MAR 05 2015

TNZ002-004-019-021-049-052-054-088>092-060200-
WEST TENNESSEE

CITY           SKY/WX    TMP DP  RH WIND       PRES   REMARKS
MEMPHIS INTL   CLEAR     26  11  52 NE6       30.55R WCI  19
NWS MEMPHIS      N/A     25 N/A N/A MISG        N/A
JACKSON        PTCLDY    22   9  57 N12       30.55R WCI  10
DYERSBURG      PTCLDY    21   0  39 NE5       30.59R WCI  15
UNION CITY       N/A     18   7  62 NE8       30.56R WCI   7
PARIS          CLEAR     18   5  57 N5        30.54R WCI  11
LEXINGTON      CLEAR     23   9  54 N5        30.51R WCI  17
SAVANNAH       CLEAR     25  12  58 N7        30.51S WCI  17
$$

TNZ008-025-027-028-033-062-065-066-060200-
NORTH MIDDLE TENNESSEE

CITY           SKY/WX    TMP DP  RH WIND       PRES   REMARKS
NASHVILLE      CLEAR     22  12  65 N9        30.52R WCI  12
CLARKSVILLE    PTCLDY    17   4  56 N12       30.55R WCI   4
COOKEVILLE     CLEAR     19  16  86 CALM      30.45S
CROSSVILLE     CLOUDY    19  13  77 N9G20     30.39R WCI   8
$$

TNZ061-075-076-078-094-096-097-060200-
SOUTH MIDDLE TENNESSEE

CITY           SKY/WX    TMP DP  RH WIND       PRES   REMARKS
FAYETTEVILLE   MOCLDY    19  16  86 N12         N/A  WCI   7
TULLAHOMA      CLOUDY    21  16  79 N9          N/A  WCI  11
WINCHESTER     CLOUDY    21  16  79 N15       30.45R WCI   8
COLUMBIA         N/A     23  16  74 N7        30.48R WCI  15
SHELBYVILLE    PTCLDY    21  18  86 N5        30.49S WCI  15
$$

TNZ017-018-042-046-047-060200-
NORTHEAST TENNESSEE

CITY           SKY/WX    TMP DP  RH WIND       PRES   REMARKS
TRI CITIES     CLOUDY    24  19  81 N9        30.36R WCI  14
ELIZABETHTON   CLOUDY    23  18  80 W7        30.34R WCI  15
$$

TNZ012-013-036-069-073-074-060200-
CENTRAL EAST TENNESSEE

CITY           SKY/WX    TMP DP  RH WIND       PRES   REMARKS
KNOXVILLE      CLOUDY    25  20  81 N16       30.40R WCI  12
OAK RIDGE      MOCLDY    24  17  74 VRB6      30.45R WCI  17
GATLINBURG     CLOUDY    25  21  86 N6        30.40R WCI  18
$$

TNZ083-085-099-060200-
SOUTHEAST TENNESSEE

CITY           SKY/WX    TMP DP  RH WIND       PRES   REMARKS
CHATTANOOGA    MOCLDY    28  20  71 N23       30.41R WCI  14
$$

SKY/WX REPORTED AS FAIR MEANS FEW OR NO CLOUDS BELOW
12 THOUSAND FEET.




USA.gov is the U.S. government's official web portal to all federal, state and local government web resources and services.